GW5152 Weather Reports


time (UTC)temp
C
wind
direction
speed
KPH
gust
KPH
rain 1hr
cm
rain 24hr
cm
rain mn
cm
humidity
%
barometer
mb
20260502195739 16 0.0 0.0 0.00 0.00 0.00 57 1014.4
20260502194732 17 0.0 0.0 0.00 0.00 0.00 56 1014.4
20260502193733 17 0.0 0.0 0.00 0.00 0.00 55 1014.4
20260502192732 17 0.0 0.0 0.00 0.00 0.00 55 1014.3
20260502191732 17 0.0 0.0 0.00 0.00 0.00 54 1014.2
20260502190731 18 0.0 0.0 0.00 0.00 0.00 53 1014.1
20260502185731 18 0.0 0.0 0.00 0.00 0.00 51 1014.0
20260502184731 18 0.0 0.0 0.00 0.00 0.00 51 1014.0
20260502183730 19 0.0 0.0 0.00 0.00 0.00 50 1013.8
20260502182730 20 0.0 0.0 0.00 0.00 0.00 49 1013.8
20260502181730 20 0.0 0.0 0.00 0.00 0.00 49 1013.7
20260502180729 21 0.0 0.0 0.00 0.00 0.00 46 1013.7
20260502163744 23 0.0 0.0 0.00 0.00 0.00 38 1013.8
20260502162726 23 0.0 0.0 0.00 0.00 0.00 38 1013.9
20260502161725 24 0.0 0.0 0.00 0.00 0.00 39 1014.0
20260502160725 24 0.0 0.0 0.00 0.00 0.00 40 1014.1
20260502151723 25 0.0 0.0 0.00 0.00 0.00 44 1014.6
20260502150723 25 0.0 0.0 0.00 0.00 0.00 44 1014.8
20260502130719 24 0.0 0.0 0.00 0.00 0.00 46 1016.4
20260502123718 24 0.0 0.0 0.00 0.00 0.00 45 1016.8
20260502122717 24 0.0 0.0 0.00 0.00 0.00 44 1016.8
20260502121717 24 0.0 0.0 0.00 0.00 0.00 46 1017.0
20260502120717 23 0.0 0.0 0.00 0.00 0.00 45 1017.1
20260502115716 23 0.0 0.0 0.00 0.00 0.00 45 1017.2
20260502114716 23 0.0 0.0 0.00 0.00 0.00 45 1017.3
20260502113716 23 0.0 0.0 0.00 0.00 0.00 46 1017.5
20260502112719 23 0.0 0.0 0.00 0.00 0.00 45 1017.6
20260502111731 23 0.0 0.0 0.00 0.00 0.00 44 1017.6
20260502110715 23 0.0 0.0 0.00 0.00 0.00 44 1017.8
20260502105717 22 0.0 0.0 0.00 0.00 0.00 44 1017.8
20260502103647 21 0.0 0.0 0.00 0.00 0.00 49 1018.0
20260502102647 21 0.0 0.0 0.00 0.00 0.00 50 1018.1
20260502101647 21 0.0 0.0 0.00 0.00 0.00 51 1018.3
20260502100646 21 0.0 0.0 0.00 0.00 0.00 52 1018.5
20260502090644 18 0.0 0.0 0.00 0.00 0.00 53 1019.3
20260502070613 13 0.0 0.0 0.00 0.00 0.00 60 1020.8
20260502065628 13 0.0 0.0 0.00 0.00 0.00 63 1020.9
20260502064627 12 0.0 0.0 0.00 0.00 0.00 63 1021.1
20260502063612 12 0.0 0.0 0.00 0.00 0.00 65 1021.3
20260502062611 11 0.0 0.0 0.00 0.00 0.00 65 1021.2
20260502061611 11 0.0 0.0 0.00 0.00 0.00 66 1021.1
20260502060611 10 0.0 0.0 0.00 0.00 0.00 66 1021.2
20260502055610 10 0.0 0.0 0.00 0.00 0.00 67 1021.3
20260502054610 10 0.0 0.0 0.00 0.00 0.00 67 1021.2
20260502053610 10 0.0 0.0 0.00 0.00 0.00 67 1021.3
20260502052610 9 0.0 0.0 0.00 0.00 0.00 70 1021.2
20260502051610 8 0.0 0.0 0.00 0.00 0.00 72 1021.2
20260502050611 7 0.0 0.0 0.00 0.00 0.00 72 1021.2
20260502045609 7 0.0 0.0 0.00 0.00 0.00 71 1021.3
20260502044622 7 0.0 0.0 0.00 0.00 0.00 72 1021.2
20260502043608 7 0.0 0.0 0.00 0.00 0.00 71 1021.2
20260502042608 7 0.0 0.0 0.00 0.00 0.00 70 1021.4
20260502041608 7 0.0 0.0 0.00 0.00 0.00 71 1021.1
20260502040607 7 0.0 0.0 0.00 0.00 0.00 70 1020.9
20260502035606 7 0.0 0.0 0.00 0.00 0.00 70 1020.9
20260502034607 7 0.0 0.0 0.00 0.00 0.00 70 1021.0
20260502033606 7 0.0 0.0 0.00 0.00 0.00 70 1021.1
20260502032619 7 0.0 0.0 0.00 0.00 0.00 69 1021.1
20260502031605 7 0.0 0.0 0.00 0.00 0.00 69 1021.0
20260502030605 7 0.0 0.0 0.00 0.00 0.00 69 1021.1
20260502025605 7 0.0 0.0 0.00 0.00 0.00 68 1021.2
20260502024605 7 0.0 0.0 0.00 0.00 0.00 68 1021.2
20260502023605 7 0.0 0.0 0.00 0.00 0.00 68 1021.1
20260502022605 7 0.0 0.0 0.00 0.00 0.00 68 1021.1
20260502021604 7 0.0 0.0 0.00 0.00 0.00 68 1021.1
20260502020603 8 0.0 0.0 0.00 0.00 0.00 67 1021.1
20260502015603 8 0.0 0.0 0.00 0.00 0.00 68 1021.2
20260502014603 8 0.0 0.0 0.00 0.00 0.00 67 1021.2
20260502013602 8 0.0 0.0 0.00 0.00 0.00 66 1021.1
20260502012602 8 0.0 0.0 0.00 0.00 0.00 66 1021.1
20260502011601 8 0.0 0.0 0.00 0.00 0.00 65 1021.2
20260502010601 8 0.0 0.0 0.00 0.00 0.00 65 1021.2
20260502005601 8 0.0 0.0 0.00 0.00 0.00 65 1021.3
20260502004600 9 0.0 0.0 0.00 0.00 0.00 64 1021.3
20260502003559 9 0.0 0.0 0.00 0.00 0.00 65 1021.4
20260502002600 9 0.0 0.0 0.00 0.00 0.00 64 1021.4
20260502001559 10 0.0 0.0 0.00 0.00 0.00 64 1021.4
20260502000600 10 0.0 0.0 0.00 0.00 0.00 64 1021.5
20260501235559 10 0.0 0.0 0.00 0.00 0.00 63 1021.5
20260501234613 10 0.0 0.0 0.00 0.00 0.00 63 1021.7
20260501233558 10 0.0 0.0 0.00 0.00 0.00 63 1021.8
20260501232558 10 0.0 0.0 0.00 0.00 0.00 63 1021.7
20260501231612 10 0.0 0.0 0.00 0.00 0.00 63 1021.8
20260501230557 11 0.0 0.0 0.00 0.00 0.00 62 1021.8
20260501225556 11 0.0 0.0 0.00 0.00 0.00 62 1021.8
20260501223530 11 0.0 0.0 0.00 0.00 0.00 61 1021.9
20260501222529 11 0.0 0.0 0.00 0.00 0.00 61 1021.9
20260501221529 11 0.0 0.0 0.00 0.00 0.00 60 1021.9
20260501220529 11 0.0 0.0 0.00 0.00 0.00 60 1021.9
20260501215528 11 0.0 0.0 0.00 0.00 0.00 60 1021.8
20260501214527 12 0.0 0.0 0.00 0.00 0.00 58 1021.9
20260501213527 12 0.0 0.0 0.00 0.00 0.00 58 1021.8
20260501212527 12 0.0 0.0 0.00 0.00 0.00 57 1021.8
20260501211527 12 0.0 0.0 0.00 0.00 0.00 56 1021.9
20260501210526 13 0.0 0.0 0.00 0.00 0.00 56 1021.9
20260501205526 13 0.0 0.0 0.00 0.00 0.00 54 1021.8
20260501204526 13 0.0 0.0 0.00 0.00 0.00 54 1021.8
20260501203525 13 0.0 0.0 0.00 0.00 0.00 54 1021.8
20260501202524 14 0.0 0.0 0.00 0.00 0.00 52 1021.7
20260501201525 14 0.0 0.0 0.00 0.00 0.00 51 1021.7